VU3OPZ-13 Weather Reports


time (UTC)temp
F
wind
direction
speed
knots
gust
knots
rain 1hr
in
rain 24hr
in
rain mn
in
humidity
%
barometer
mb
20260508223416 82 38 1.7 0.0 0.00 0.00 0.00 53 1008.0
20260508220411 82 339 2.6 0.0 0.00 0.00 0.00 53 1007.0
20260508203405 83 289 0.0 0.0 0.00 0.00 0.00 52 1007.0
20260508200400 84 216 3.5 0.0 0.00 0.00 0.00 48 1008.0
20260508193356 84 216 3.5 0.0 0.00 0.00 0.00 48 1008.0
20260508184548 85 218 7.0 0.0 0.00 0.00 0.00 47 1008.0
20260508181544 86 180 6.1 0.0 0.00 0.00 0.00 40 1009.0
20260508174539 86 180 6.1 0.0 0.00 0.00 0.00 40 1009.0
20260508171535 88 129 7.8 0.0 0.00 0.00 0.00 40 1009.0
20260508161530 89 50 1.7 0.0 0.00 0.00 0.00 40 1009.0
20260508154525 89 50 1.7 0.0 0.00 0.00 0.00 40 1009.0
20260508151521 90 298 7.8 0.0 0.00 0.00 0.00 40 1008.0
20260508144516 90 298 7.8 0.0 0.00 0.00 0.00 40 1008.0
20260508141512 90 228 5.2 0.0 0.00 0.00 0.00 37 1007.0
20260508134506 90 228 5.2 0.0 0.00 0.00 0.00 37 1007.0
20260508131501 91 195 10.4 0.0 0.00 0.00 0.00 35 1006.0
20260508124457 91 195 10.4 0.0 0.00 0.00 0.00 33 1006.0
20260508115931 97 194 9.6 0.0 0.00 0.00 0.00 24 1005.0
20260508105926 98 100 5.2 0.0 0.00 0.00 0.00 22 1004.0
20260508102922 98 96 5.2 0.0 0.00 0.00 0.00 21 1005.0
20260508095917 98 96 5.2 0.0 0.00 0.00 0.00 21 1005.0
20260508092913 99 77 7.0 0.0 0.00 0.00 0.00 21 1005.0
20260508085909 99 77 7.0 0.0 0.00 0.00 0.00 21 1005.0
20260508082904 100 79 7.0 0.0 0.00 0.00 0.00 21 1006.0
20260508075900 100 79 7.0 0.0 0.00 0.00 0.00 21 1006.0
20260508072855 98 84 7.0 0.0 0.00 0.00 0.00 24 1007.0
20260508065851 98 84 7.0 0.0 0.00 0.00 0.00 24 1007.0
20260508044005 95 69 7.0 0.0 0.00 0.00 0.00 25 1009.0
20260508040958 92 46 7.0 0.0 0.00 0.00 0.00 29 1010.0
20260508033954 92 46 7.0 0.0 0.00 0.00 0.00 29 1010.0
20260508030950 87 16 4.3 0.0 0.00 0.00 0.00 38 1010.0
20260508021122 84 328 4.3 0.0 0.00 0.00 0.00 47 1009.0
20260508014116 84 328 4.3 0.0 0.00 0.00 0.00 47 1009.0
20260508011112 81 324 4.3 0.0 0.00 0.00 0.00 55 1008.0
20260508004108 81 324 4.3 0.0 0.00 0.00 0.00 57 1008.0